Flag for Finland Weather past 2 weeks in Rovaniemi, Finland

Now
52 °F

Light rain. Partly sunny.


Feels Like: 49 °F
Forecast: 49 / 62 °F
Wind: 8 mph from Northeast

Location: Rovaniemi Airport

Current Time: Jul 7, 2015 at 7:06:33 PM

Latest Report: Jul 7, 2015 at 6:20 PM


Visibility: 4 mi

Pressure: 29.47 "Hg

Humidity: 100%

Dew point: 52 °F

Location of RovaniemiLocation

Historic Weather in Rovaniemi — Graph

°F

Rovaniemi temperature yesterday

Maximum temperature yesterday: 61 °F (at 5:50 PM)
Minimum temperature yesterday: 45 °F (at 3:50 AM)
Average temperature yesterday: 52 °F

Past Weeks' High & Low Weather Summary

 TemperatureHumidityPressure
High72 °F (Jun 22, 5:50 PM)100% (Jun 23, 7:20 AM)30.21 "Hg (Jun 23, 7:20 AM)
Low41 °F (Jul 5, 3:50 AM)25% (Jun 30, 7:20 PM)29.47 "Hg (Jul 7, 1:50 PM)
Average55 °F73%29.87 "Hg
* Reported Jun 22 5:20 PM — Jul 7 5:50 PM, Rovaniemi, Weather by CustomWeather, © 2015

Note: Actual official high and low records may vary slightly from our data, if they occured in-between our weather recording intervals... More about our weather records

Advertising

Rovaniemi weather history for previous 24 hours

 ConditionsComfort  
Time TempWeatherWind HumidityBarometerVisibility
5:50 PM
Tue, Jul 7
52 °FLight rain. Overcast.6 mph100%29.47 "HgN/A
5:20 PM52 °FLight rain. Partly sunny.8 mph94%29.47 "HgN/A
4:50 PM52 °FLight rain. Overcast.8 mph94%29.47 "HgN/A
4:20 PM52 °FLight rain. Partly sunny.9 mph100%29.47 "HgN/A
3:50 PM52 °FLight rain. Overcast.9 mph100%29.47 "HgN/A
3:20 PM54 °FLight rain. Partly sunny.8 mph94%29.47 "HgN/A
2:50 PM54 °FLight rain. Overcast.7 mph94%29.47 "HgN/A
2:20 PM52 °FLight rain. Partly sunny.8 mph94%29.47 "HgN/A
1:50 PM52 °FLight rain. Partly sunny.7 mph94%29.47 "HgN/A
1:20 PM52 °FLight rain. Partly sunny.6 mph88%29.50 "HgN/A
12:50 PM52 °FSprinkles. Mostly cloudy.7 mph94%29.50 "HgN/A
12:20 PM52 °FSprinkles. Partly sunny.6 mph94%29.50 "HgN/A
11:50 AM52 °FScattered showers. Partly sunny.6 mph88%29.50 "HgN/A
11:20 AM52 °FLight rain. Partly sunny.5 mph88%29.50 "HgN/A
10:50 AM50 °FLight rain. Partly sunny.5 mph94%29.50 "HgN/A
10:20 AM50 °FLight rain. Broken clouds.6 mph94%29.50 "HgN/A
9:50 AM48 °FLight rain. Broken clouds.6 mph94%29.53 "HgN/A
9:20 AM48 °FLight rain. Partly sunny.5 mph94%29.53 "HgN/A
8:50 AM48 °FLight rain. Overcast.7 mph94%29.53 "HgN/A
8:20 AM48 °FLight rain. Broken clouds.6 mph87%29.56 "HgN/A
7:50 AM48 °FSprinkles. Overcast.6 mph87%29.56 "HgN/A
7:20 AM48 °FSprinkles. Partly sunny.7 mph94%29.56 "HgN/A
6:50 AM48 °FOvercast.7 mph87%29.56 "HgN/A
6:20 AM48 °FSprinkles. Partly sunny.7 mph87%29.59 "HgN/A
5:50 AM48 °FScattered showers. Overcast.6 mph87%29.59 "HgN/A
5:20 AM46 °FLight rain. Partly sunny.6 mph93%29.62 "HgN/A
4:50 AM48 °FRain. Overcast.5 mph87%29.62 "HgN/A
4:20 AM48 °FRain. Partly sunny.5 mph82%29.65 "HgN/A
3:50 AM50 °FLight rain. Overcast.5 mph76%29.65 "HgN/A
3:20 AM50 °FLight rain. Partly sunny.6 mph76%29.65 "HgN/A
2:50 AM52 °FLight rain. Overcast.6 mph67%29.68 "HgN/A
2:20 AM52 °FPartly sunny.5 mph67%29.68 "HgN/A
1:50 AM52 °FScattered showers. Broken clouds.5 mph67%29.71 "HgN/A
1:20 AM52 °FPassing clouds.5 mph67%29.71 "HgN/A
12:50 AM52 °FPassing clouds.6 mph72%29.71 "HgN/A
12:20 AM54 °FPassing clouds.6 mph67%29.71 "HgN/A
11:50 PM
Mon, Jul 6
52 °FPassing clouds.3 mph72%29.74 "HgN/A
11:20 PM54 °FPassing clouds.3 mph67%29.74 "HgN/A
10:50 PM54 °FSunny.2 mph67%29.74 "Hg10 mi
10:20 PM55 °FPassing clouds.3 mph63%29.77 "HgN/A
9:50 PM57 °FPassing clouds.3 mph55%29.77 "HgN/A
9:20 PM57 °FSunny.5 mph51%29.80 "Hg10 mi
8:50 PM57 °FSunny.6 mph44%29.80 "Hg10 mi
8:20 PM59 °FSunny.8 mph42%29.83 "Hg10 mi
7:50 PM57 °FSunny.10 mph44%29.83 "Hg10 mi
7:20 PM59 °FSunny.12 mph39%29.86 "Hg10 mi
Weather by CustomWeather, © 2015

See weather overviewHow to use our weather pages